Regional Weather Roundup
Issued by NWS Goodland, KS

Home | Current Version | Previous Version | Graphics & Text | Print | Product List | Glossary On
Versions: 1 2 3 4 5 6 7 8 9 10 11 12 13 14 15 16 17 18 19 20 21 22 23 24 25 26 27 28 29 30 31 32 33 34 35 36 37 38 39 40 41 42 43 44 45 46 47 48 49 50
000
ASUS43 KGLD 230859
RWRGLD

GOODLAND FORECAST AREA HOURLY WEATHER ROUNDUP
NATIONAL WEATHER SERVICE GOODLAND KS
300 AM MDT TUE SEP 23 2014

...OFFICIAL OBSERVATIONS...

CITY           SKY/WX    TMP DP  RH WIND       PRES   REMARKS
GOODLAND KS    PTCLDY    57  56  96 SE10      30.06F
HILL CITY KS   LGT RAIN  58  55  90 SE16G23   30.03F
IMPERIAL NEB   MOCLDY    57  54  89 SW7       30.04S
MCCOOK NEB     CLOUDY    59  57  93 CALM      30.06R
AKRON CO       MOCLDY    57  56  96 E3        30.08F
BURLINGTON CO  MOCLDY    58  56  93 CALM      30.08S
LIMON CO       CLEAR     50  49  96 CALM      30.14F
$$

...UNOFFICIAL OBSERVATIONS...

CITY           SKY/WX    TMP DP  RH WIND       PRES   REMARKS
GOVE KS          N/A     60  32  34 MISG        N/A
SHARON SPRINGS   N/A     62  55  79 S14         N/A
WAKEENEY KS      N/A     58  55  91 MISG        N/A
KIT CARSON CO    N/A     60  55  83 CALM        N/A
YUMA CO          N/A     56  54  94 E6          N/A
$$


USA.gov is the U.S. government's official web portal to all federal, state and local government web resources and services.